Theta_e
356 361 364 361 358 360 361 361 362 362 362 362 363 362 361 361 361 362 361 361 360 358 357 357 355 353 352 351 351 353 355 358 359 359 359 357 356 356 353 349 345 339 340
358 361 364 361 359 359 361 361 362 361 361 362 362 362 362 362 362 362 361 360 358 356 356 356 354 352 352 352 354 356 357 359 360 356 356 356 355 352 347 344 342 337 338
356 360 361 362 360 359 360 361 361 361 361 361 361 361 361 361 361 361 361 359 358 355 356 354 352 351 351 353 355 356 359 359 358 355 352 346 345 346 344 342 340 338 337
356 357 358 362 361 359 358 359 360 360 361 360 360 361 360 361 360 359 359 358 356 354 355 353 350 350 352 353 355 358 360 360 357 352 344 343 342 343 341 339 338 337 335
356 355 357 362 361 359 358 358 359 360 360 360 360 360 360 360 359 359 358 357 355 353 353 352 349 350 352 354 358 361 360 356 352 343 340 340 340 339 338 337 336 335 334
354 354 361 362 361 360 358 358 359 360 359 360 360 360 360 360 359 358 357 356 355 354 353 350 349 351 352 355 359 359 355 351 345 341 340 340 338 339 337 336 336 334 333
352 355 359 362 361 360 358 358 358 359 359 360 360 360 360 359 358 356 356 355 354 353 353 349 349 352 354 359 359 356 352 347 338 338 338 337 337 338 336 335 334 333 333
352 356 357 361 361 360 359 359 359 358 359 360 360 360 360 359 357 356 356 355 355 355 353 350 350 351 356 359 358 354 350 345 338 337 338 337 339 336 335 334 333 332 332
355 356 355 357 359 360 359 358 359 358 358 359 359 359 358 358 357 356 355 355 355 356 354 351 350 350 354 357 356 353 347 343 337 337 336 335 337 335 335 334 332 332 332
352 354 356 356 357 356 356 359 359 358 358 358 359 358 358 357 356 356 353 354 355 355 353 352 350 350 352 356 355 351 346 343 336 336 336 335 336 335 334 333 332 331 331
350 350 352 354 354 355 355 356 358 357 358 358 358 358 355 351 353 352 352 352 355 355 354 352 350 349 352 356 354 351 345 336 336 336 335 337 335 335 334 333 332 331 330
346 350 351 351 352 351 353 353 353 352 353 354 353 352 349 347 347 349 350 352 354 355 354 352 351 351 351 353 352 349 338 335 336 335 336 337 335 335 333 333 332 330 330
343 346 350 350 349 348 350 351 353 350 352 352 350 348 345 345 346 346 344 347 347 350 348 345 346 347 348 351 350 340 338 336 336 336 337 337 335 334 334 333 331 329 330
340 343 348 350 351 350 350 351 350 349 350 348 348 347 343 341 340 341 340 340 342 343 343 342 338 341 347 348 349 339 337 337 336 336 337 336 336 334 334 333 331 330 329
327 340 343 348 348 348 349 347 348 348 348 348 347 346 343 340 338 338 338 338 338 340 340 338 336 338 343 346 347 339 336 335 335 335 335 337 335 334 334 333 331 330 329
328 335 340 345 346 347 349 345 347 348 348 347 345 345 344 340 337 336 335 336 337 338 338 337 334 334 339 343 343 338 334 334 334 333 334 336 338 336 334 331 330 329 329
334 337 339 341 341 342 346 347 348 348 348 346 344 343 344 341 337 337 335 335 337 338 337 335 334 335 341 342 341 338 335 333 334 333 333 333 336 336 334 331 330 328 331
335 337 338 343 340 340 343 345 345 347 347 346 345 343 342 343 339 337 336 336 338 337 336 335 335 336 339 338 335 335 333 332 333 332 332 331 332 330 333 331 329 328 330
335 336 336 337 337 338 338 341 341 341 342 343 344 343 342 342 342 337 337 337 338 337 335 335 336 340 338 337 335 334 331 331 331 330 331 329 329 329 329 332 329 328 329
318 333 336 338 336 335 336 338 338 337 338 338 340 341 342 342 343 339 338 337 337 335 336 337 338 341 340 337 335 331 331 331 330 328 329 329 328 328 327 328 330 328 329
308 316 332 336 336 333 333 333 334 334 335 335 337 339 340 342 343 341 340 337 336 335 335 338 340 340 339 336 329 329 330 331 330 329 327 327 327 326 325 325 328 326 329
308 310 320 329 334 336 335 335 337 337 337 338 338 338 339 340 342 342 340 338 337 335 335 337 341 339 340 334 330 326 324 327 328 328 325 326 326 326 325 324 326 325 326
309 308 311 314 319 332 337 336 334 336 335 335 337 338 339 339 341 341 341 339 338 337 336 336 340 340 336 335 333 329 320 321 323 324 325 325 325 323 325 324 322 326 323
310 313 313 314 314 314 316 326 333 332 329 332 333 336 337 340 340 341 341 340 339 337 338 337 340 341 337 334 331 330 327 325 321 318 322 321 320 321 322 320 320 324 320
309 309 310 312 314 317 318 319 320 324 329 331 331 332 334 337 340 341 340 339 338 339 338 339 340 340 339 335 333 328 325 320 321 321 318 317 319 319 320 319 318 321 318
307 309 310 311 311 312 315 320 320 321 323 327 329 330 331 334 336 338 339 338 340 340 339 338 340 341 338 336 333 330 326 322 318 317 316 315 316 317 316 316 317 319 317
Wind_Speed
4 11 16 15 15 16 15 15 16 18 18 18 19 18 16 14 12 12 13 12 12 13 13 12 12 11 10 9 9 8 7 9 11 13 15 14 13 15 16 15 13 12 13
11 11 16 15 15 17 16 15 14 16 18 17 18 17 16 14 13 11 12 10 9 11 12 12 11 10 9 8 8 8 6 10 12 13 15 15 15 15 14 13 14 12 13
11 11 11 16 16 16 16 16 15 14 15 16 17 16 15 14 13 12 9 9 9 10 11 11 10 10 8 8 7 8 8 13 16 16 15 10 9 13 14 13 14 13 13
11 8 8 13 14 17 17 16 15 15 14 15 15 15 15 14 13 12 10 9 9 9 10 10 9 9 7 7 7 6 10 14 15 12 8 10 11 13 13 13 12 13 12
8 7 8 13 14 15 17 17 15 15 15 15 15 15 14 14 12 11 10 9 9 8 9 9 8 8 7 7 9 12 15 15 15 12 10 9 7 11 12 12 11 12 12
8 7 11 13 13 14 17 17 16 16 15 15 14 14 13 12 11 10 9 8 7 7 9 7 7 8 8 7 11 14 15 15 14 10 9 10 7 11 11 11 11 11 11
8 7 10 13 13 14 16 17 17 16 16 15 13 13 12 10 10 9 8 8 7 6 8 6 6 7 7 7 13 14 15 15 10 9 8 7 8 10 10 11 11 10 10
4 4 6 12 13 14 15 15 16 15 15 15 14 13 12 11 10 9 8 8 8 7 7 6 6 7 8 11 14 14 15 14 10 9 8 6 9 10 10 11 10 10 11
5 4 3 3 7 10 11 13 14 15 16 15 14 13 12 11 10 9 8 6 6 6 6 5 5 6 9 12 13 13 14 15 9 6 7 4 10 10 9 11 10 10 12
5 4 5 7 6 5 5 11 11 12 13 14 14 13 12 11 10 9 8 6 5 6 5 5 5 6 7 11 13 13 15 15 8 7 5 4 9 10 9 10 10 11 11
3 4 5 8 8 8 4 7 10 13 12 11 11 11 8 3 4 6 6 6 5 5 5 4 4 5 7 9 14 14 13 4 7 5 4 10 8 10 9 9 11 11 11
6 5 7 7 6 5 6 4 5 6 4 4 4 5 4 4 4 4 5 6 4 4 3 4 3 4 5 6 7 12 4 6 5 4 3 10 9 10 9 9 11 10 10
6 6 8 9 5 5 5 3 3 1 3 3 4 5 4 3 3 2 2 1 1 3 1 2 1 2 4 5 6 5 6 6 4 3 6 10 9 9 9 9 11 10 12
7 8 9 9 8 8 5 5 5 5 6 6 3 4 4 3 3 3 2 3 2 2 3 3 1 2 4 6 9 8 7 5 4 3 6 10 9 9 9 9 10 9 9
7 7 10 12 11 7 7 4 4 7 7 5 3 4 3 3 3 3 3 3 3 2 2 2 3 3 4 5 8 9 8 7 6 3 2 12 9 9 8 8 8 9 8
7 7 7 10 9 8 8 5 5 4 7 4 3 4 5 3 3 3 3 3 3 3 3 3 2 3 3 4 7 9 9 7 7 6 4 5 9 8 8 7 6 6 9
8 5 10 9 8 8 8 7 6 7 5 4 4 5 6 5 5 4 3 4 4 3 4 3 3 2 3 3 6 8 7 8 7 7 6 4 5 8 8 6 5 5 9
6 9 8 9 11 10 9 7 5 6 5 5 5 5 6 6 6 5 4 5 3 3 3 3 3 3 3 4 5 5 6 6 7 8 6 5 4 3 6 7 5 4 6
11 9 8 8 9 10 8 5 4 4 4 3 4 5 8 8 6 6 5 6 4 3 4 3 3 3 3 5 5 4 4 5 7 6 7 7 6 5 3 6 5 4 4
6 3 2 6 7 6 3 3 3 3 3 3 4 5 6 7 9 8 6 7 5 3 3 3 4 3 3 5 6 4 3 3 4 4 6 5 6 6 5 3 2 2 3
6 7 6 6 6 5 3 3 2 4 3 3 6 8 7 7 9 7 6 6 6 7 7 6 3 4 2 5 4 2 2 2 5 5 4 5 6 7 6 4 3 2 2
8 9 7 7 4 4 2 3 3 3 3 2 3 5 9 10 10 8 9 8 7 6 6 7 6 3 2 6 4 4 3 1 3 5 4 6 7 5 6 6 5 5 4
4 7 6 6 7 5 4 2 2 2 1 1 3 5 9 10 10 11 9 8 7 7 6 7 9 8 5 4 3 5 3 4 2 1 5 5 5 5 5 5 5 6 6
4 4 4 4 5 5 6 4 6 4 5 5 3 2 2 5 7 8 9 9 7 6 6 7 8 8 6 8 1 2 1 4 4 2 0 1 3 5 6 5 6 7 6
5 5 6 7 7 5 5 3 3 5 4 3 3 5 5 5 8 9 8 8 8 7 7 10 9 9 7 5 7 4 2 2 2 3 3 2 1 2 4 5 6 6 5
4 4 5 5 4 5 5 3 2 5 5 4 5 4 4 4 5 7 9 9 10 9 10 8 5 7 9 5 6 5 5 5 4 4 3 2 2 2 2 3 5 6 5
Wind_Direction
157 136 139 144 145 130 122 117 115 116 115 116 119 122 122 125 125 126 128 129 129 127 121 111 103 96 95 94 95 98 109 113 110 101 97 87 81 79 70 67 65 65 65
134 137 141 143 144 134 130 124 119 118 120 121 121 123 124 126 125 123 127 129 128 124 117 109 103 96 96 92 89 89 104 128 110 94 90 83 77 75 71 73 77 72 66
126 135 140 146 142 138 137 135 129 124 123 126 127 128 128 128 128 130 128 130 127 121 115 107 102 94 89 85 85 92 104 127 103 99 92 85 74 72 75 72 68 67 64
123 124 131 145 141 143 142 137 134 132 132 133 133 134 134 134 139 134 133 130 131 128 116 105 96 89 80 72 75 121 126 107 98 88 78 83 82 75 72 68 64 63 55
106 110 143 145 144 148 146 143 141 141 141 141 142 142 143 144 140 137 136 133 137 127 107 99 94 86 74 71 82 81 114 103 99 88 84 81 83 80 77 74 61 57 57
119 129 152 150 148 154 153 150 149 148 148 149 150 148 148 143 139 136 138 135 132 125 105 95 85 75 69 92 108 105 106 104 96 85 84 85 78 78 75 69 60 55 53
139 144 152 156 157 161 162 158 157 155 153 154 154 151 147 144 142 146 150 146 144 135 114 105 89 77 70 105 127 113 112 106 101 97 93 86 85 78 74 68 62 56 54
97 117 150 165 165 169 169 167 164 160 159 159 159 156 151 158 157 160 165 167 155 142 122 117 98 86 82 105 121 118 117 114 105 103 100 95 90 81 72 73 64 52 45
93 107 106 150 177 179 175 173 171 168 166 165 163 161 161 168 168 172 176 180 163 141 133 123 115 94 103 121 121 124 120 120 114 116 111 102 92 83 74 71 62 49 43
132 145 162 192 182 172 175 182 180 179 175 170 169 170 170 173 175 178 179 191 185 157 149 135 131 113 113 139 136 132 133 124 118 111 110 106 97 87 74 66 58 49 46
161 171 180 193 203 200 173 189 186 189 186 181 178 177 168 151 175 186 194 206 205 185 157 150 150 129 123 139 149 142 134 127 131 133 131 115 103 90 79 68 59 51 46
205 196 198 210 192 183 203 198 170 179 175 176 172 171 156 162 169 182 200 219 235 242 176 160 174 154 136 143 151 149 139 142 139 137 135 123 113 96 85 70 63 54 45
192 189 199 206 178 188 209 165 183 181 160 177 184 176 159 157 178 174 170 207 178 254 221 109 205 167 180 159 152 148 152 152 146 142 141 129 120 107 97 80 73 60 57
200 201 190 194 187 198 208 194 196 203 203 204 191 177 166 168 183 186 180 197 205 201 234 154 181 175 207 179 167 167 157 148 150 150 147 143 130 121 105 93 80 72 59
223 208 190 189 191 188 202 188 185 206 210 199 166 169 165 194 203 166 193 194 206 216 209 248 152 206 215 203 169 161 158 162 152 146 137 151 149 134 120 101 82 69 64
224 213 179 186 186 179 192 185 193 204 217 166 164 170 179 185 199 191 208 221 218 208 197 219 212 192 225 201 171 169 163 164 159 151 155 160 162 152 135 111 91 68 50
218 190 188 183 170 188 194 186 189 208 201 185 184 188 186 192 199 194 206 227 231 212 210 207 223 230 228 178 164 169 173 159 154 164 158 167 169 171 148 133 112 69 56
184 195 186 184 185 188 194 184 185 187 188 188 185 178 192 199 198 199 206 227 221 201 214 211 203 204 195 171 157 167 162 150 157 165 168 165 175 184 168 154 134 84 62
190 190 195 179 182 192 187 177 180 193 201 200 190 191 192 201 204 204 216 228 204 189 199 216 210 188 179 176 159 151 143 153 163 168 177 179 185 185 175 176 158 119 79
292 301 224 188 190 178 136 143 148 182 218 198 216 213 199 207 202 204 220 219 208 189 192 200 195 186 193 159 140 118 120 143 147 173 185 188 195 191 179 183 155 145 144
215 238 207 188 190 151 146 155 187 212 191 208 211 212 208 211 208 201 224 215 211 211 215 188 165 169 141 126 106 71 69 169 185 189 183 194 207 201 179 186 179 157 147
190 211 207 198 166 175 165 155 166 169 215 218 209 220 215 213 212 209 207 218 210 210 199 180 171 153 136 172 133 108 165 207 231 199 191 198 211 198 187 189 180 163 138
202 217 212 197 191 199 170 118 103 85 18 224 217 216 219 212 212 210 206 209 199 205 212 191 187 172 159 199 164 142 143 208 164 99 219 200 204 204 189 175 165 162 148
91 96 135 169 188 206 187 191 203 211 203 208 200 219 229 212 218 208 217 211 209 209 202 208 199 194 146 171 225 212 54 142 165 171 229 204 200 199 177 174 161 167 154
80 95 98 100 102 115 138 200 219 261 253 271 221 215 217 204 211 215 202 199 205 205 209 229 204 195 195 158 175 149 150 81 77 134 174 164 125 134 166 168 164 174 162
46 60 69 68 56 51 80 108 209 252 278 276 271 252 226 206 204 213 205 200 208 205 197 193 215 200 199 181 185 177 168 165 181 154 129 134 151 113 148 156 175 176 168